Longville, MN

3:23 PM CDT on May 22, 2017 (GMT -0500)
Longville Municipal

Weather History for KXVG - January, 2014

Change the Weather History Date:

Monday, January 20, 2014

  Actual Average (KPWC) Record (KPWC)
Temperature  
Mean Temperature 0 °F -  
Max Temperature 15 °F 17 °F 35 °F (2017)
Min Temperature -16 °F 0 °F -25 °F (2008)
Degree Days  
Heating Degree Days 66    
Moisture  
Dew Point -10 °F    
Average Humidity 67    
Maximum Humidity 92    
Minimum Humidity 42    
Precipitation  
Precipitation 0.00 in - - ()
Sea Level Pressure  
Sea Level Pressure 30.12 in    
Wind  
Wind Speed 5 mph (North)    
Max Wind Speed 10 mph    
Max Gust Speed 17 mph    
Visibility 9 miles    
Events Snow    
Averages and records for this station are not official NWS values.
T = Trace of Precipitation, MM = Missing Value Source: NWS Daily Summary

Daily Weather History Graph

Daily Weather History Graph

Search for Another Location

Airport or City:

Trip Planner

Search our weather history database for the weather conditions in past years. The results will help you decide how hot, cold, wet, or windy it might be!

Date:

Astronomy

Jan. 20, 2014 Rise Set
Actual Time 7:54 AM CST 5:01 PM CST
Civil Twilight 7:20 AM CST 5:35 PM CST
Nautical Twilight 6:43 AM CST 6:13 PM CST
Astronomical Twilight 6:07 AM CST 6:49 PM CST
Moon 9:58 PM CST (1/20) 9:35 AM CST (1/20)
Length of Visible Light 10h 14m
Length of Day
9h 07m
Waning Gibbous, 82% of the Moon is Illuminated
Jan 20
Waning Gibbous
Jan 23
Last Quarter
Jan 30
New
Feb 6
First Quarter
Feb 14
Full

Hourly Weather History & Observations

Time (CST) Temp. Windchill Dew Point Humidity Pressure Visibility Wind Dir Wind Speed Gust Speed Precip Events Conditions
12:16 AM 15.8 °F - 12.2 °F 86% 29.71 in 3.0 mi Calm Calm - N/A Snow Light Snow
12:36 AM 15.8 °F 8.6 °F 12.2 °F 86% 29.71 in 2.0 mi North 4.6 mph - N/A Snow Light Snow
12:56 AM 14.0 °F 6.5 °F 10.4 °F 86% 29.72 in 2.0 mi North 4.6 mph - N/A Snow Light Snow
1:16 AM 14.0 °F 6.5 °F 10.4 °F 86% 29.72 in 2.5 mi NNW 4.6 mph - N/A Snow Light Snow
1:36 AM 12.2 °F 2.9 °F 10.4 °F 92% 29.73 in 2.5 mi North 5.8 mph - N/A Snow Light Snow
1:56 AM 12.2 °F 2.9 °F 8.6 °F 85% 29.75 in 2.5 mi North 5.8 mph - N/A Snow Light Snow
2:16 AM 12.2 °F 6.1 °F 8.6 °F 85% 29.75 in 2.0 mi North 3.5 mph - N/A Snow Light Snow
2:36 AM 12.2 °F 4.3 °F 8.6 °F 85% 29.77 in 4.0 mi North 4.6 mph - N/A Snow Light Snow
2:56 AM 10.4 °F 4.0 °F 6.8 °F 85% 29.79 in 3.0 mi North 3.5 mph - N/A Snow Light Snow
3:16 AM 8.6 °F -2.6 °F 5.0 °F 85% 29.80 in 7.0 mi NNE 6.9 mph - N/A Snow Light Snow
3:36 AM 8.6 °F 0.1 °F 3.2 °F 79% 29.81 in 10.0 mi North 4.6 mph - N/A Snow Light Snow
3:56 AM 8.6 °F - 3.2 °F 79% 29.81 in 7.0 mi Calm Calm - N/A Snow Light Snow
4:16 AM 6.8 °F -0.1 °F 1.4 °F 79% 29.82 in 7.0 mi NNE 3.5 mph - N/A Snow Light Snow
4:36 AM 6.8 °F -4.8 °F 1.4 °F 79% 29.84 in 10.0 mi NNE 6.9 mph - N/A   Overcast
4:56 AM 5.0 °F -5.6 °F -0.4 °F 78% 29.85 in 10.0 mi NNE 5.8 mph - N/A   Overcast
5:16 AM 5.0 °F -6.9 °F -0.4 °F 78% 29.86 in 10.0 mi NNE 6.9 mph - N/A   Overcast
5:36 AM 3.2 °F -9.1 °F -2.2 °F 78% 29.88 in 10.0 mi North 6.9 mph - N/A   Overcast
5:56 AM 3.2 °F -9.1 °F -2.2 °F 78% 29.89 in 10.0 mi North 6.9 mph - N/A   Overcast
6:16 AM 3.2 °F -6.2 °F -2.2 °F 78% 29.90 in 10.0 mi North 4.6 mph - N/A   Overcast
6:36 AM 1.4 °F -6.2 °F -2.2 °F 85% 29.92 in 7.0 mi North 3.5 mph - N/A Snow Light Snow
6:56 AM 1.4 °F -11.3 °F -4.0 °F 78% 29.93 in 10.0 mi NNE 6.9 mph - N/A   Overcast
7:16 AM -0.4 °F -12.0 °F -5.8 °F 78% 29.94 in 7.0 mi NNE 5.8 mph - N/A   Overcast
7:36 AM -0.4 °F -12.0 °F -5.8 °F 78% 29.96 in 7.0 mi NNE 5.8 mph - N/A   Overcast
7:56 AM -2.2 °F -12.5 °F -7.6 °F 78% 29.98 in 10.0 mi NNE 4.6 mph - N/A   Overcast
8:16 AM -2.2 °F -14.2 °F -7.6 °F 78% 29.99 in 10.0 mi NNE 5.8 mph - N/A   Overcast
8:36 AM -2.2 °F -16.8 °F -7.6 °F 78% 30.01 in 10.0 mi North 8.1 mph - N/A   Overcast
8:56 AM -2.2 °F -15.6 °F -9.4 °F 71% 30.03 in 7.0 mi NE 6.9 mph - N/A   Mostly Cloudy
9:16 AM -2.2 °F -15.6 °F -9.4 °F 71% 30.04 in 10.0 mi NE 6.9 mph - N/A   Scattered Clouds
9:36 AM -2.2 °F -14.2 °F -9.4 °F 71% 30.05 in 10.0 mi NE 5.8 mph - N/A   Scattered Clouds
9:56 AM -2.2 °F -18.9 °F -9.4 °F 71% 30.08 in 3.0 mi NNE 10.4 mph - N/A Snow Light Snow
10:16 AM -2.2 °F -16.8 °F -9.4 °F 71% 30.09 in 10.0 mi North 8.1 mph - N/A   Scattered Clouds
10:36 AM -0.4 °F -13.4 °F -9.4 °F 66% 30.10 in 10.0 mi NNE 6.9 mph - N/A   Scattered Clouds
10:56 AM -2.2 °F -16.8 °F -11.2 °F 66% 30.12 in 10.0 mi North 8.1 mph - N/A   Scattered Clouds
11:16 AM -0.4 °F -14.7 °F -11.2 °F 60% 30.13 in 10.0 mi North 8.1 mph - N/A   Clear
11:36 AM -0.4 °F -16.7 °F -11.2 °F 60% 30.13 in 10.0 mi North 10.4 mph - N/A   Clear
11:56 AM -0.4 °F -13.4 °F -11.2 °F 60% 30.14 in 10.0 mi North 6.9 mph 16.1 mph N/A   Clear
12:16 PM -0.4 °F -15.7 °F -13.0 °F 55% 30.14 in 10.0 mi NNE 9.2 mph - N/A   Clear
12:36 PM 1.4 °F -8.3 °F -11.2 °F 56% 30.15 in 10.0 mi North 4.6 mph - N/A   Clear
12:56 PM 1.4 °F -11.3 °F -11.2 °F 56% 30.15 in 10.0 mi NNW 6.9 mph - N/A   Clear
1:16 PM -0.4 °F -12.0 °F -13.0 °F 55% 30.17 in 10.0 mi North 5.8 mph - N/A   Clear
1:36 PM -0.4 °F -14.7 °F -14.8 °F 51% 30.19 in 10.0 mi North 8.1 mph - N/A   Clear
1:56 PM -0.4 °F -15.7 °F -14.8 °F 51% 30.19 in 10.0 mi North 9.2 mph 16.1 mph N/A   Clear
2:16 PM -0.4 °F -15.7 °F -14.8 °F 51% 30.21 in 10.0 mi North 9.2 mph - N/A   Clear
2:36 PM 1.4 °F -12.5 °F -14.8 °F 47% 30.21 in 10.0 mi North 8.1 mph - N/A   Clear
2:56 PM 1.4 °F -11.3 °F -16.6 °F 43% 30.23 in 10.0 mi North 6.9 mph 16.1 mph N/A   Clear
3:16 PM -0.4 °F -15.7 °F -16.6 °F 46% 30.24 in 10.0 mi North 9.2 mph 17.3 mph N/A   Clear
3:36 PM -0.4 °F -15.7 °F -14.8 °F 51% 30.26 in 10.0 mi North 9.2 mph - N/A   Clear
3:56 PM -0.4 °F -16.7 °F -14.8 °F 51% 30.27 in 10.0 mi North 10.4 mph 16.1 mph N/A   Clear
4:16 PM -2.2 °F -14.2 °F -16.6 °F 50% 30.28 in 10.0 mi North 5.8 mph - N/A   Clear
4:36 PM -2.2 °F -16.8 °F -16.6 °F 50% 30.30 in 10.0 mi NW 8.1 mph - N/A   Clear
4:56 PM -4.0 °F -17.8 °F -18.4 °F 50% 30.32 in 10.0 mi NW 6.9 mph 17.3 mph N/A   Clear
5:16 PM -5.8 °F -14.5 °F -23.8 °F 42% 30.32 in 10.0 mi NW 3.5 mph - N/A   Clear
5:36 PM -7.6 °F -22.1 °F -20.2 °F 54% 30.33 in 10.0 mi NW 6.9 mph - N/A   Clear
5:56 PM -7.6 °F -18.8 °F -20.2 °F 54% 30.35 in 10.0 mi NW 4.6 mph - N/A   Clear
6:16 PM -7.6 °F -20.6 °F -20.2 °F 54% 30.36 in 10.0 mi NW 5.8 mph - N/A   Clear
6:36 PM -7.6 °F -22.1 °F -20.2 °F 54% 30.37 in 10.0 mi NW 6.9 mph - N/A   Clear
6:56 PM -7.6 °F -20.6 °F -20.2 °F 54% 30.39 in 10.0 mi NW 5.8 mph - N/A   Clear
7:16 PM -7.6 °F -20.6 °F -20.2 °F 54% 30.40 in 10.0 mi NW 5.8 mph - N/A   Clear
7:36 PM -9.4 °F -20.9 °F -20.2 °F 59% 30.40 in 10.0 mi NNW 4.6 mph - N/A   Clear
7:56 PM -9.4 °F -20.9 °F -20.2 °F 59% 30.41 in 10.0 mi NW 4.6 mph - N/A   Clear
8:16 PM -9.4 °F -24.3 °F -20.2 °F 59% 30.41 in 10.0 mi NW 6.9 mph - N/A   Clear
8:36 PM -9.4 °F -24.3 °F -20.2 °F 59% 30.41 in 10.0 mi NW 6.9 mph - N/A   Clear
8:56 PM -11.2 °F -27.8 °F -20.2 °F 64% 30.41 in 10.0 mi WNW 8.1 mph - N/A   Clear
9:16 PM -11.2 °F -24.8 °F -20.2 °F 64% 30.41 in 10.0 mi WNW 5.8 mph - N/A   Clear
9:36 PM -11.2 °F -26.4 °F -20.2 °F 64% 30.41 in 10.0 mi WNW 6.9 mph - N/A   Clear
9:56 PM -13.0 °F -30.0 °F -20.2 °F 70% 30.42 in 10.0 mi WNW 8.1 mph - N/A   Clear
10:16 PM -14.8 °F -32.2 °F -22.0 °F 70% 30.42 in 10.0 mi WNW 8.1 mph - N/A   Clear
10:36 PM -14.8 °F -29.1 °F -22.0 °F 70% 30.42 in 10.0 mi WNW 5.8 mph - N/A   Clear
10:56 PM -14.8 °F -30.8 °F -23.8 °F 64% 30.42 in 10.0 mi WNW 6.9 mph - N/A   Clear
11:16 PM -16.6 °F -32.9 °F -23.8 °F 70% 30.42 in 10.0 mi WNW 6.9 mph - N/A   Clear
11:36 PM -16.6 °F -31.3 °F -23.8 °F 70% 30.42 in 10.0 mi NW 5.8 mph - N/A   Clear
11:56 PM -16.6 °F -32.9 °F -23.8 °F 70% 30.41 in 10.0 mi WNW 6.9 mph - N/A   Clear